User: anonymous   Login
Location: Kunchanapalle
(16.4623°N, 80.6176°E)
Time: 01:05:37
(UTC+00:00)
Language:

GPS 2-15 Rocket1 - Orbit

View from above orbital plane
View from above orbital plane
View from above satellite
View from above satellite

Ground track
Ground track

The orbit data is extracted from the following two-line orbital elements,

1 22109U 92058B   20292.85056486  .00000520  00000-0  21973-4 0  9998
2 22109  19.7817 135.6237 0036687 125.4630 234.9214 14.73598744510448
Epoch (UTC): 18 October 2020 20:24:48
Eccentricity: 0.0036687
inclination: 19.7817°
perigee height: 624 km
apogee height: 675 km
right ascension of ascending node: 135.6237°
argument of perigee: 125.4630°
revolutions per day: 14.73598744
mean anomaly at epoch: 234.9214°
orbit number at epoch: 51044

The dashed part of the orbit path shows where the satellite is in the earth's shadow,  

DLR